Погода в Сакулине

Россия / Ивановская область     56°48′00″N   42°05′15″E
темп.,
°C
ветер,
м/с
пор.,
м/с
влажн.,
%
обл.,
%
осадки,
мм/ч
давл.,
гПа
погр.,
м
17 апреля, сб
сб1700:00+6всв5128060 0.0 1026384
03:00+5всв4128525 0.0 1026348
06:00+4всв4128025 0.0 1026354
09:00+8в510595 0.0 1027535
12:00+12всв684437 0.0 1026907
15:00+13всв68404 0.0 10261063
18:00+11всв59500 0.0 1025849
21:00+6всв412700 0.0 1026424
18 апреля, вс
вс1800:00+5всв413780 0.0 1025419
03:00+3всв312870 0.0 1025331
06:00+3всв412830 0.0 1025384
09:00+8в510594 0.0 1025930
12:00+12всв684451 0.0 10251520
15:00+13всв684118 0.0 10251952
18:00+10св695863 0.0 10251040
21:00+5всв61278100 0.0 1027594
19 апреля, пн
пн1900:00+4всв51276100 0.0 1028566
03:00+2всв41165100 0.0 1029479
06:00+2всв51169100 0.0 1029546
09:00+4в5858100 0.0 1030772
12:00+7в6849100 0.0 10301326
15:00+8в6837100 0.0 10301741
18:00+7всв593979 0.0 10291348
21:00+4всв51250100 0.0 1030524
20 апреля, вт
вт2000:00+3всв51355100 0.0 1030665
03:00+2в51256100 0.0 1029661
06:00+1в41260100 0.2 1029773
09:00+4вюв6115298 0.2 1028882
12:00+9вюв7104399 0.0 10271474
15:00+10вюв6104488 0.0 10251588
18:00+9вюв61246100 0.0 10231432
21:00+6вюв71449100 0.0 10221044
21 апреля, ср
ср2100:00+6вюв71650100 0.0 10191104
03:00+4вюв91977100 1.8 10151006
06:00+4юв81891100 3.5 10131130
09:00+4юв81690100 5.3 1012971
12:00+5юв81789100 0.6 10111207
15:00+6юв81789100 0.9 10091279
18:00+7ююв91689100 1.3 10081484
21:00+5ю81687100 1.4 10111443